Iowa City, IA

5:29 PM CDT on May 22, 2018 (GMT -0500)
Iowa City Municipal

Weather History for KIOW - April, 2014

Change the Weather History Date:

Wednesday, April 2, 2014

  Actual Average Record
Temperature  
Mean Temperature 41 °F 46 °F  
Max Temperature 50 °F 57 °F 86 °F (1981)
Min Temperature 31 °F 36 °F 15 °F (2018)
Degree Days  
Heating Degree Days 24 19  
Month to date heating degree days 53 38  
Since 1 July heating degree days 6889 5805  
Cooling Degree Days 0 0  
Month to date cooling degree days 0 0  
Year to date cooling degree days 0 0  
Moisture  
Dew Point 31 °F    
Average Humidity 66    
Maximum Humidity 82    
Minimum Humidity 50    
Precipitation  
Precipitation T in 0.07 in 1.70 in (1983)
Month to date precipitation T 0.14  
Year to date precipitation 2.46 4.52  
Sea Level Pressure  
Sea Level Pressure 30.06 in    
Wind  
Wind Speed 11 mph (ENE)    
Max Wind Speed 21 mph    
Max Gust Speed 29 mph    
Visibility 10 miles    
Events Rain    
T = Trace of Precipitation, MM = Missing Value Source: NWS Daily Summary

Daily Weather History Graph

Daily Weather History Graph

Search for Another Location

Airport or City:

Astronomy

Apr. 02, 2014 Rise Set
Actual Time 6:47 AM CDT 7:32 PM CDT
Civil Twilight 6:19 AM CDT 8:00 PM CDT
Nautical Twilight 5:46 AM CDT 8:34 PM CDT
Astronomical Twilight 5:11 AM CDT 9:08 PM CDT
Moon 8:29 AM CDT (4/2) 10:58 PM CDT (4/2)
Length of Visible Light 13h 41m
Length of Day
12h 45m
Waxing Crescent, 10% of the Moon is Illuminated
Apr 2
Waxing Crescent
Apr 7
First Quarter
Apr 15
Full
Apr 22
Last Quarter
Apr 29
New

Hourly Weather History & Observations

Time (CDT) Temp. Windchill Dew Point Humidity Pressure Visibility Wind Dir Wind Speed Gust Speed Precip Events Conditions
12:52 AM 37.0 °F 34.5 °F 28.0 °F 70% 30.12 in 10.0 mi NNE 3.5 mph - N/A   Overcast
1:52 AM 36.0 °F 33.3 °F 28.9 °F 76% 30.11 in 10.0 mi South 3.5 mph - N/A   Overcast
2:52 AM 35.1 °F - 28.0 °F 76% 30.10 in 10.0 mi Calm Calm - N/A   Scattered Clouds
3:52 AM 36.0 °F 30.3 °F 28.9 °F 76% 30.11 in 10.0 mi NNE 6.9 mph - N/A   Clear
4:52 AM 34.0 °F 26.6 °F 28.9 °F 82% 30.12 in 10.0 mi NNE 9.2 mph - N/A   Clear
5:52 AM 33.1 °F 25.5 °F 28.0 °F 82% 30.14 in 10.0 mi NNE 9.2 mph - N/A   Clear
7:52 AM 32.0 °F 23.0 °F 27.0 °F 82% 30.15 in 10.0 mi NNE 11.5 mph - N/A   Clear
8:52 AM 35.1 °F 26.4 °F 28.0 °F 76% 30.13 in 10.0 mi ENE 12.7 mph - N/A   Clear
9:52 AM 39.0 °F 33.4 °F 28.9 °F 67% 30.14 in 10.0 mi ENE 8.1 mph - N/A   Clear
10:52 AM 42.1 °F 35.2 °F 28.9 °F 60% 30.14 in 10.0 mi ENE 12.7 mph 19.6 mph N/A   Clear
11:52 AM 46.9 °F - 30.0 °F 52% 30.11 in 10.0 mi East 11.5 mph - N/A   Clear
12:52 PM 48.0 °F - 30.9 °F 52% 30.09 in 10.0 mi East 12.7 mph 21.9 mph N/A   Scattered Clouds
1:52 PM 48.9 °F - 30.9 °F 50% 30.06 in 10.0 mi East 12.7 mph 20.7 mph N/A   Overcast
2:52 PM 48.9 °F - 30.9 °F 50% 30.04 in 10.0 mi East 10.4 mph - N/A   Overcast
3:52 PM 48.9 °F - 32.0 °F 52% 30.03 in 10.0 mi East 9.2 mph - N/A   Overcast
5:52 PM 48.9 °F - 33.1 °F 54% 30.01 in 10.0 mi East 11.5 mph 20.7 mph N/A   Overcast
6:52 PM 48.0 °F - 35.1 °F 61% 29.99 in 10.0 mi ENE 13.8 mph 19.6 mph N/A   Overcast
7:36 PM 48.0 °F - 35.1 °F 61% 29.97 in 10.0 mi ENE 12.7 mph 23.0 mph N/A   Overcast
7:52 PM 48.0 °F - 35.1 °F 61% 29.98 in 10.0 mi East 13.8 mph 21.9 mph N/A   Overcast
8:52 PM 48.0 °F - 34.0 °F 58% 29.98 in 10.0 mi East 15.0 mph 21.9 mph N/A   Overcast
9:52 PM 46.0 °F 39.0 °F 30.0 °F 54% 29.98 in 10.0 mi East 17.3 mph 28.8 mph N/A   Overcast
10:52 PM 44.1 °F 37.1 °F 33.1 °F 65% 29.99 in 10.0 mi East 15.0 mph 20.7 mph 0.00 in Rain Light Rain
11:52 PM 42.1 °F 34.9 °F 34.0 °F 73% 29.95 in 10.0 mi East 13.8 mph 25.3 mph 0.00 in   Overcast